Flag for Brazil Weather past 2 weeks in Belém, Pará, Brazil

Now
N/A

Light rain.


Feels Like: N/A
Forecast: 73 / 88 °F
Wind: 8 mph from North

Location: Belem Aeroporto

Current Time: Jul 6, 2015 at 3:26:51 PM

Latest Report: Jul 6, 2015 at 3:00 PM


Visibility: N/A

Pressure: N/A

Humidity: N/A

Dew point: N/A

Location of BelémLocation

Historic Weather in Belém — Graph

°F

Belém temperature yesterday

Maximum temperature yesterday: 88 °F (at 2:00 PM)
Minimum temperature yesterday: 75 °F (at 4:00 AM)
Average temperature yesterday: 80 °F

Past Weeks' High & Low Weather Summary

 TemperatureHumidityPressure
High90 °F (Jun 21, 3:00 PM)100% (Jun 22, 4:00 PM)30.04 "Hg (Jun 22, 4:00 PM)
Low73 °F (Jun 22, 5:00 AM)52% (Jun 24, 2:00 PM)29.80 "Hg (Jul 5, 4:00 PM)
Average80 °F80%29.94 "Hg
* Reported Jun 21 2:00 PM — Jul 6 2:00 PM, Belém, Weather by CustomWeather, © 2015

Note: Actual official high and low records may vary slightly from our data, if they occured in-between our weather recording intervals... More about our weather records

Advertising

Belém weather history for previous 24 hours

 ConditionsComfort  
Time TempWeatherWind HumidityBarometerVisibility
2:00 PM
Mon, Jul 6
88 °FPartly sunny.9 mph59%29.86 "HgN/A
1:00 PM88 °FPartly sunny.12 mph55%29.89 "HgN/A
12:00 PM88 °FPartly sunny.12 mph59%29.89 "HgN/A
11:00 AM86 °FPartly sunny.8 mph66%29.92 "HgN/A
10:00 AM84 °FScattered clouds.9 mph70%29.92 "HgN/A
9:00 AM82 °FPassing clouds.8 mph70%29.92 "HgN/A
8:00 AM79 °FSunny.8 mph84%29.89 "Hg10 mi
7:00 AM77 °FSunny.6 mph89%29.89 "Hg10 mi
6:00 AM77 °FClear.6 mph89%29.86 "Hg10 mi
5:00 AM77 °FClear.5 mph89%29.86 "Hg10 mi
4:00 AM77 °FClear.9 mph89%29.86 "Hg10 mi
3:00 AM77 °FClear.5 mph89%29.86 "Hg10 mi
2:00 AM77 °FClear.8 mph89%29.89 "Hg10 mi
1:00 AM77 °FClear.8 mph89%29.89 "Hg10 mi
12:00 AM77 °FPassing clouds.9 mph89%29.89 "HgN/A
11:00 PM
Sun, Jul 5
77 °FPassing clouds.7 mph89%29.89 "HgN/A
10:00 PM77 °FClear.2 mph89%29.89 "Hg10 mi
9:00 PM77 °FPassing clouds.6 mph89%29.86 "HgN/A
8:00 PM79 °FPartly cloudy.8 mph84%29.86 "HgN/A
7:00 PM81 °FPassing clouds.9 mph84%29.83 "HgN/A
6:00 PM82 °FScattered clouds.9 mph79%29.80 "HgN/A
5:00 PM84 °FPartly sunny.12 mph79%29.80 "HgN/A
4:00 PM84 °FPartly sunny.10 mph79%29.80 "HgN/A
3:00 PM88 °FPartly sunny.7 mph62%29.83 "HgN/A
Weather by CustomWeather, © 2015

See weather overviewHow to use our weather pages